Location: Brotuna
(46.2000°N, 22.6000°E)
Time: 23:31:30
(UTC+00:00)

Cosmos 1697 Rocket - Pass Details

Date: 09 April 2020
Orbit: 831 x 845 km, 71.0° (Epoch: 27 May)

Event Time Altitude Azimuth Distance (km) Brightness Sun altitude
Rises 19:24:13 0° 337° (NNW) 3,412 6.9 -21.7°
Reaches altitude 10° 19:26:47 10° 343° (NNW) 2,474 5.9 -22.1°
Maximum altitude 19:32:13 45° 56° (NE) 1,136 3.2 -22.8°
Enters shadow 19:33:14 41° 85° (E) 1,206 3.1 -22.9°
